Fort Benning, AL

1:18 PM CDT on May 24, 2017 (GMT -0500)
Lawson Army Air Field

Weather History for KLSF - May, 2013

Change the Weather History Date:

Thursday, May 16, 2013

  Actual Average Record
Temperature  
Mean Temperature 72 °F -  
Max Temperature 84 °F 82 °F 92 °F (2017)
Min Temperature 60 °F 57 °F 44 °F (2014)
Cooling Degree Days 7    
Growing Degree Days 22 (Base 50)    
Moisture  
Dew Point 58 °F    
Average Humidity 67    
Maximum Humidity 93    
Minimum Humidity 34    
Precipitation  
Precipitation 0.00 in - - ()
Sea Level Pressure  
Sea Level Pressure 30.06 in    
Wind  
Wind Speed 3 mph (South)    
Max Wind Speed 8 mph    
Max Gust Speed -    
Visibility 10 miles    
Events      
Averages and records for this station are not official NWS values.
T = Trace of Precipitation, MM = Missing Value Source: NWS Daily Summary

Daily Weather History Graph

Daily Weather History Graph

Search for Another Location

Airport or City:

Trip Planner

Search our weather history database for the weather conditions in past years. The results will help you decide how hot, cold, wet, or windy it might be!

Date:

Astronomy

May. 16, 2013 Rise Set
Actual Time 6:41 AM EDT 8:31 PM EDT
Civil Twilight 6:14 AM EDT 8:59 PM EDT
Nautical Twilight 5:41 AM EDT 9:31 PM EDT
Astronomical Twilight 5:06 AM EDT 10:06 PM EDT
Moon 12:07 PM EDT (5/16) 12:57 AM EDT (5/16)
Length of Visible Light 14h 44m
Length of Day
13h 50m
Waxing Crescent, 35% of the Moon is Illuminated
May 16
Waxing Crescent
May 18
First Quarter
May 25
Full
May 31
Last Quarter
Jun 8
New

Hourly Weather History & Observations

Time (EDT) Temp. Heat Index Dew Point Humidity Pressure Visibility Wind Dir Wind Speed Gust Speed Precip Events Conditions
12:58 AM 63.7 °F - 61.5 °F 93% 30.06 in 10.0 mi SE 2.3 mph - N/A   Clear
1:58 AM 69.3 °F - 57.9 °F 67% 30.06 in 10.0 mi SSW 4.6 mph - N/A   Overcast
2:58 AM 67.5 °F - 57.9 °F 71% 30.06 in 10.0 mi SW 3.5 mph - N/A   Overcast
3:58 AM 63.9 °F - 59.7 °F 86% 30.06 in 10.0 mi Calm Calm - N/A   Overcast
4:58 AM 61.7 °F - 58.1 °F 88% 30.06 in 10.0 mi Calm Calm - N/A   Overcast
5:58 AM 60.8 °F - 58.5 °F 92% 30.06 in 10.0 mi SE 3.5 mph - N/A   Scattered Clouds
6:58 AM 61.7 °F - 59.4 °F 92% 30.09 in 10.0 mi Calm Calm - N/A   Clear
7:58 AM 61.9 °F - 59.5 °F 92% 30.10 in 10.0 mi South 4.6 mph - N/A   Scattered Clouds
8:58 AM 65.3 °F - 60.4 °F 84% 30.10 in 10.0 mi SE 4.6 mph - N/A   Scattered Clouds
9:56 AM 71.6 °F - 57.2 °F 60% 30.09 in 10.0 mi WNW 3.5 mph - N/A   Mostly Cloudy
10:56 AM 73.4 °F - 59.0 °F 61% 30.11 in 10.0 mi WSW 4.6 mph - N/A   Partly Cloudy
11:56 AM 77.0 °F - 55.4 °F 47% 30.09 in 10.0 mi Variable 4.6 mph - N/A   Mostly Cloudy
12:56 PM 78.8 °F - 51.8 °F 39% 30.09 in 10.0 mi South 5.8 mph - N/A   Scattered Clouds
1:56 PM 80.6 °F - 50.0 °F 34% 30.07 in 10.0 mi Variable 5.8 mph - N/A   Clear
2:56 PM 82.4 °F - 51.8 °F 35% 30.06 in 10.0 mi Variable 3.5 mph - N/A   Clear
3:56 PM 82.4 °F - 51.8 °F 35% 30.04 in 10.0 mi West 4.6 mph - N/A   Clear
4:56 PM 84.2 °F 83.0 °F 55.4 °F 37% 30.02 in 10.0 mi Variable 3.5 mph - N/A   Clear
5:58 PM 83.8 °F 82.8 °F 55.9 °F 38% 30.01 in 10.0 mi South 8.1 mph - N/A   Clear
6:58 PM 81.3 °F 81.3 °F 57.4 °F 44% 30.01 in 10.0 mi WSW 3.5 mph - N/A   Clear
7:58 PM 76.8 °F - 64.8 °F 66% 30.00 in 10.0 mi ESE 3.5 mph - N/A   Scattered Clouds
8:58 PM 68.4 °F - 62.6 °F 82% 30.02 in 10.0 mi Calm Calm - N/A   Partly Cloudy
9:58 PM 68.2 °F - 63.1 °F 84% 30.03 in 10.0 mi SE 1.2 mph - N/A   Overcast
10:58 PM 67.6 °F - 63.5 °F 87% 30.04 in 10.0 mi Calm Calm - N/A   Overcast
11:58 PM 66.7 °F - 64.2 °F 92% 30.03 in 10.0 mi Calm Calm - N/A   Overcast